User: anonymous   Login
Location: Unspecified
(0.0000°N, 0.0000°E)
Time: 00:09:23
(UTC+00:00)
Language:

CHUBUSAT 2 - Orbit

View from above orbital plane
View from above orbital plane
View from above satellite
View from above satellite

Ground track
Ground track

The orbit data is extracted from the following two-line orbital elements,

1 41338U 16012B   24201.63735734  .00007331  00000-0  44933-3 0  9996
2 41338  30.9992 181.8878 0011571 203.1246 156.8871 15.08730213462500
Epoch (UTC): 19 July 2024 15:17:47
Eccentricity: 0.0011571
inclination: 30.9992°
perigee height: 532 km
apogee height: 548 km
right ascension of ascending node: 181.8878°
argument of perigee: 203.1246°
revolutions per day: 15.08730213
mean anomaly at epoch: 156.8871°
orbit number at epoch: 46250

The dashed part of the orbit path shows where the satellite is in the earth's shadow,  

DLR